Flag for United Kingdom Weather past 2 weeks in Milton Keynes, England, United Kingdom

Now
79 °F

Passing clouds.


Feels Like: 79 °F
Forecast: 58 / 77 °F
Wind: 10 mph from East

Location: Cranfield

Current Time: Jul 3, 2015 at 5:21:35 PM

Latest Report: Jul 3, 2015 at 4:50 PM


Visibility: N/A

Pressure: 30.15 "Hg

Humidity: 42%

Dew point: 54 °F

Location of Milton KeynesLocation

Historic Weather in Milton Keynes — Graph

°F

Milton Keynes temperature yesterday

Maximum temperature yesterday: 75 °F (at 3:20 PM)
Minimum temperature yesterday: 64 °F (at 7:20 AM)
Average temperature yesterday: 69 °F

Past Weeks' High & Low Weather Summary

 TemperatureHumidityPressure
High93 °F (Jul 1, 3:50 PM)94% (Jun 20, 9:50 AM)30.30 "Hg (Jun 20, 9:50 AM)
Low52 °F (Jun 19, 7:20 AM)25% (Jun 30, 3:50 PM)29.77 "Hg (Jun 22, 11:50 AM)
Average67 °F61%30.06 "Hg
* Reported Jun 18 4:20 PM — Jul 3 4:20 PM, Milton Keynes, Weather by CustomWeather, © 2015

Note: Actual official high and low records may vary slightly from our data, if they occured in-between our weather recording intervals... More about our weather records

Advertising

Milton Keynes weather history for previous 24 hours

 ConditionsComfort  
Time TempWeatherWind HumidityBarometerVisibility
4:20 PM
Fri, Jul 3
79 °FPassing clouds.12 mph39%30.18 "HgN/A
3:50 PM79 °FPassing clouds.12 mph37%30.18 "HgN/A
3:20 PM77 °FSunny.12 mph39%30.18 "Hg10 mi
2:50 PM77 °FPassing clouds.12 mph39%30.21 "HgN/A
2:20 PM77 °FPassing clouds.12 mph42%30.21 "HgN/A
1:50 PM75 °FPassing clouds.12 mph41%30.24 "HgN/A
1:20 PM73 °FPassing clouds.9 mph47%30.24 "HgN/A
12:50 PM73 °FPassing clouds.9 mph44%30.24 "HgN/A
12:20 PM72 °FPassing clouds.10 mph47%30.27 "HgN/A
11:50 AM72 °FPassing clouds.10 mph47%30.27 "HgN/A
10:50 AM70 °FPassing clouds.9 mph53%30.27 "HgN/A
10:20 AM68 °FPassing clouds.8 mph56%30.30 "HgN/A
9:50 AM66 °FPassing clouds.9 mph64%30.30 "HgN/A
9:20 AM64 °FPassing clouds.8 mph73%30.30 "HgN/A
8:50 AM64 °FPassing clouds.5 mph73%30.30 "HgN/A
8:20 AM63 °FPassing clouds.6 mph83%30.30 "HgN/A
7:50 AM59 °FSunny.6 mph88%30.30 "Hg10 mi
5:50 PM
Thu, Jul 2
73 °FScattered clouds.18 mph65%30.09 "HgN/A
Weather by CustomWeather, © 2015

See weather overviewHow to use our weather pages